Hourly Data Report for October 04, 2017

All times are specified in Local Standard Time (LST). Add 1 hour to adjust for Daylight Saving Time where and when it is observed.

FORT LIARD
NORTHWEST TERRITORIES

60°14'00.000" N
123°28'00.000" W
213.40 m
2201579
71497
WJL

Download Data

Hourly Data (October 2017)
Hourly Data Report for October 4, 2017
Temp Definition
°C
Dew Point Temp Definition
°C
Rel Hum Definition
%
Wind Dir Definition
10's deg

Wind Spd Definition
km/h
Visibility Definition
km
Stn Press Definition
kPa
Hmdx Definition


Wind Chill Definition


Weather Definition


TIME
00:00 6.0 4.0 87 31 2   99.39     LegendNANA
01:00 4.1 2.7 91 6 3   99.40     LegendNANA
02:00 5.3 4.0 92 20 4   99.41     LegendNANA
03:00 6.1 3.5 83 20 7   99.38     LegendNANA
04:00 6.4 3.8 84 22 6   99.33     LegendNANA
05:00 6.5 3.7 82 20 8   99.28     LegendNANA
06:00 6.5 4.0 84 22 6   99.27     LegendNANA
07:00 5.9 3.8 87 21 4   99.23     LegendNANA
08:00 6.2 4.2 87 21 2   99.20     LegendNANA
09:00 7.5 5.0 84 23 9   99.15     LegendNANA
10:00 11.4 5.8 69 26 2   99.10     LegendNANA
11:00 13.7 5.8 59 23 9   99.04     LegendNANA
12:00 17.4 6.1 47 21 9   99.01     LegendNANA
13:00 17.6 7.5 52 21 8   98.95     LegendNANA
14:00 22.2 6.7 37 21 10   98.90     LegendNANA
15:00 22.8 6.8 36 22 16   98.83     LegendNANA
16:00 23.1 6.6 35 22 11   98.80     LegendNANA
17:00 22.1 7.1 38 21 12   98.75     LegendNANA
18:00 16.4 7.3 55 6 10   98.73     LegendNANA
19:00 12.3 6.5 67 5 9   98.74     LegendNANA
20:00 10.4 6.6 77 9 9   98.74     LegendNANA
21:00 8.3 5.3 81 7 11   98.72     LegendNANA
22:00 7.7 4.7 81 8 8   98.70     LegendNANA
23:00 5.0 3.3 89 8 7   98.67     LegendNANA

Notes on Data Quality.

Legend

  • E = Estimated
  • M = Missing
  • NA = Not Available
  • ‡ = Partner data that is not subject to review by the National Climate Archives
Date modified: